Time,TemperatureF,DewpointF,PressureIn,WindDirection,WindDirectionDegrees,WindSpeedMPH,WindSpeedGustMPH,Humidity,HourlyPrecipIn,Conditions,Clouds,dailyrainin,SoftwareType,DateUTC
2013-03-14 00:02:00,24.8,18.9,30.29,SSE,166,0.0,0.0,78,0.00,,,0.00,VWS V14.01,2013-03-14 05:02:00,
2013-03-14 00:07:00,24.9,18.7,30.29,SSE,166,0.0,0.0,77,0.00,,,0.00,VWS V14.01,2013-03-14 05:07:00,
2013-03-14 00:13:00,24.8,18.6,30.29,SSE,167,0.0,2.0,77,0.00,,,0.00,VWS V14.01,2013-03-14 05:13:00,
2013-03-14 00:18:00,24.8,18.6,30.29,SSE,168,0.0,2.0,77,0.00,,,0.00,VWS V14.01,2013-03-14 05:18:00,
2013-03-14 00:23:00,24.8,18.6,30.28,SSE,168,0.0,2.0,77,0.00,,,0.00,VWS V14.01,2013-03-14 05:23:00,
2013-03-14 00:28:00,24.8,18.6,30.28,SSE,168,0.0,2.0,77,0.00,,,0.00,VWS V14.01,2013-03-14 05:28:00,
2013-03-14 00:33:00,24.7,18.5,30.28,WSW,250,0.0,2.0,77,0.00,,,0.00,VWS V14.01,2013-03-14 05:33:00,
2013-03-14 00:38:00,24.7,18.5,30.27,WSW,250,0.0,2.0,77,0.00,,,0.00,VWS V14.01,2013-03-14 05:38:00,
2013-03-14 00:43:00,24.6,18.1,30.27,SW,228,0.0,2.0,76,0.00,,,0.00,VWS V14.01,2013-03-14 05:43:00,
2013-03-14 00:48:00,24.6,18.1,30.27,SW,229,0.0,2.0,76,0.00,,,0.00,VWS V14.01,2013-03-14 05:48:00,
2013-03-14 00:53:00,24.7,18.2,30.28,SW,228,0.0,2.0,76,0.00,,,0.00,VWS V14.01,2013-03-14 05:53:00,
2013-03-14 00:58:00,24.8,18.3,30.28,SW,229,0.0,2.0,76,0.00,,,0.00,VWS V14.01,2013-03-14 05:58:00,
2013-03-14 01:03:00,24.8,18.3,30.28,SW,229,0.0,0.0,76,0.00,,,0.00,VWS V14.01,2013-03-14 06:03:00,
2013-03-14 01:08:00,24.8,18.3,30.28,SW,229,0.0,1.0,76,0.00,,,0.00,VWS V14.01,2013-03-14 06:08:00,
2013-03-14 01:13:00,24.8,18.3,30.28,SW,228,0.0,1.0,76,0.00,,,0.00,VWS V14.01,2013-03-14 06:13:00,
2013-03-14 01:19:00,24.9,18.4,30.28,SW,229,0.0,1.0,76,0.00,,,0.00,VWS V14.01,2013-03-14 06:19:00,
2013-03-14 01:24:00,25.0,18.5,30.27,SW,229,0.0,1.0,76,0.00,,,0.00,VWS V14.01,2013-03-14 06:24:00,
2013-03-14 01:29:00,25.0,18.5,30.26,SW,229,0.0,2.0,76,0.00,,,0.00,VWS V14.01,2013-03-14 06:29:00,
2013-03-14 01:34:00,24.9,18.4,30.26,SW,228,0.0,1.0,76,0.00,,,0.00,VWS V14.01,2013-03-14 06:34:00,
2013-03-14 01:39:00,24.8,18.3,30.26,East,98,0.0,2.0,76,0.00,,,0.00,VWS V14.01,2013-03-14 06:39:00,
2013-03-14 01:44:00,24.7,18.2,30.26,East,87,0.0,6.0,76,0.00,,,0.00,VWS V14.01,2013-03-14 06:44:00,
2013-03-14 01:49:00,24.6,18.4,30.25,East,87,0.0,6.0,77,0.00,,,0.00,VWS V14.01,2013-03-14 06:49:00,
2013-03-14 01:54:00,24.6,18.4,30.25,East,89,0.0,6.0,77,0.00,,,0.00,VWS V14.01,2013-03-14 06:54:00,
2013-03-14 01:59:00,24.5,18.3,30.25,East,89,0.0,6.0,77,0.00,,,0.00,VWS V14.01,2013-03-14 06:59:00,
2013-03-14 02:04:00,24.5,18.3,30.26,ESE,103,0.0,1.0,77,0.00,,,0.00,VWS V14.01,2013-03-14 07:04:00,
2013-03-14 02:09:00,24.5,18.6,30.26,ESE,102,0.0,2.0,78,0.00,,,0.00,VWS V14.01,2013-03-14 07:09:00,
2013-03-14 02:14:00,24.5,18.6,30.26,ESE,104,3.0,5.0,78,0.00,,,0.00,VWS V14.01,2013-03-14 07:14:00,
2013-03-14 02:19:00,24.5,18.6,30.26,ESE,106,0.0,5.0,78,0.00,,,0.00,VWS V14.01,2013-03-14 07:19:00,
2013-03-14 02:24:00,24.6,18.7,30.26,ESE,106,0.0,5.0,78,0.00,,,0.00,VWS V14.01,2013-03-14 07:24:00,
2013-03-14 02:30:00,24.7,18.8,30.26,ESE,106,0.0,5.0,78,0.00,,,0.00,VWS V14.01,2013-03-14 07:30:00,
2013-03-14 02:34:00,24.7,18.8,30.26,ESE,106,0.0,0.0,78,0.00,,,0.00,VWS V14.01,2013-03-14 07:34:00,
2013-03-14 02:40:00,24.7,19.1,30.26,ESE,106,0.0,0.0,79,0.00,,,0.00,VWS V14.01,2013-03-14 07:40:00,
2013-03-14 02:45:00,24.7,19.1,30.25,ESE,107,0.0,3.0,79,0.00,,,0.00,VWS V14.01,2013-03-14 07:45:00,
2013-03-14 02:50:00,24.7,19.1,30.25,ESE,108,0.0,3.0,79,0.00,,,0.00,VWS V14.01,2013-03-14 07:50:00,
2013-03-14 02:55:00,24.7,19.1,30.24,East,99,0.0,3.0,79,0.00,,,0.00,VWS V14.01,2013-03-14 07:55:00,
2013-03-14 03:00:00,24.7,19.4,30.24,ESE,117,2.0,4.0,80,0.00,,,0.00,VWS V14.01,2013-03-14 08:00:00,
2013-03-14 03:05:00,24.7,19.4,30.24,SE,127,0.0,2.0,80,0.00,,,0.00,VWS V14.01,2013-03-14 08:05:00,
2013-03-14 03:10:00,24.7,19.4,30.23,SE,125,0.0,2.0,80,0.00,,,0.00,VWS V14.01,2013-03-14 08:10:00,
2013-03-14 03:15:00,24.7,19.4,30.23,SE,124,2.0,2.0,80,0.00,,,0.00,VWS V14.01,2013-03-14 08:15:00,
2013-03-14 03:20:00,24.7,19.4,30.24,ESE,116,0.0,3.0,80,0.00,,,0.00,VWS V14.01,2013-03-14 08:20:00,
2013-03-14 03:25:00,24.8,19.5,30.24,ESE,116,0.0,3.0,80,0.00,,,0.00,VWS V14.01,2013-03-14 08:25:00,
2013-03-14 03:31:00,24.9,19.6,30.25,ESE,116,0.0,3.0,80,0.00,,,0.00,VWS V14.01,2013-03-14 08:31:00,
2013-03-14 03:36:00,25.1,19.5,30.24,ESE,116,0.0,0.0,79,0.00,,,0.00,VWS V14.01,2013-03-14 08:36:00,
2013-03-14 03:41:00,25.2,19.6,30.24,ESE,116,0.0,0.0,79,0.00,,,0.00,VWS V14.01,2013-03-14 08:41:00,
2013-03-14 03:46:00,25.3,19.7,30.24,ESE,116,0.0,0.0,79,0.00,,,0.00,VWS V14.01,2013-03-14 08:46:00,
2013-03-14 03:51:00,25.2,19.6,30.24,ESE,116,0.0,3.0,79,0.00,,,0.00,VWS V14.01,2013-03-14 08:51:00,
2013-03-14 03:57:00,25.2,19.6,30.24,ESE,116,0.0,3.0,79,0.00,,,0.00,VWS V14.01,2013-03-14 08:57:00,
2013-03-14 04:02:00,25.1,19.8,30.23,East,93,2.0,5.0,80,0.00,,,0.00,VWS V14.01,2013-03-14 09:02:00,
2013-03-14 04:07:00,24.9,20.2,30.22,ESE,118,2.0,5.0,82,0.00,,,0.00,VWS V14.01,2013-03-14 09:07:00,
2013-03-14 04:12:00,24.7,20.3,30.21,ESE,110,3.0,6.0,83,0.00,,,0.00,VWS V14.01,2013-03-14 09:12:00,
2013-03-14 04:17:00,24.4,20.3,30.21,East,88,0.0,6.0,84,0.00,,,0.00,VWS V14.01,2013-03-14 09:17:00,
2013-03-14 04:22:00,24.2,20.4,30.21,ESE,116,3.0,7.0,85,0.00,,,0.00,VWS V14.01,2013-03-14 09:22:00,
2013-03-14 04:27:00,24.1,20.5,30.21,ESE,116,3.0,7.0,86,0.00,,,0.00,VWS V14.01,2013-03-14 09:27:00,
2013-03-14 04:32:00,24.0,20.7,30.21,East,91,5.0,6.0,87,0.00,,,0.00,VWS V14.01,2013-03-14 09:32:00,
2013-03-14 04:38:00,23.8,20.5,30.20,East,93,2.0,6.0,87,0.00,,,0.00,VWS V14.01,2013-03-14 09:38:00,
2013-03-14 04:43:00,23.7,20.7,30.19,East,97,3.0,8.0,88,0.01,,,0.01,VWS V14.01,2013-03-14 09:43:00,
2013-03-14 04:48:00,23.6,20.8,30.18,ESE,113,8.0,10.0,89,0.01,,,0.01,VWS V14.01,2013-03-14 09:48:00,
2013-03-14 04:53:00,23.6,20.8,30.19,ESE,106,3.0,10.0,89,0.01,,,0.01,VWS V14.01,2013-03-14 09:53:00,
2013-03-14 04:58:00,23.5,20.7,30.19,ESE,106,3.0,10.0,89,0.01,,,0.01,VWS V14.01,2013-03-14 09:58:00,
2013-03-14 05:03:00,23.5,20.7,30.19,SE,126,2.0,5.0,89,0.01,,,0.01,VWS V14.01,2013-03-14 10:03:00,
2013-03-14 05:08:00,23.5,20.7,30.18,East,95,5.0,7.0,89,0.01,,,0.01,VWS V14.01,2013-03-14 10:08:00,
2013-03-14 05:13:00,23.6,20.8,30.18,ESE,118,1.0,7.0,89,0.01,,,0.01,VWS V14.01,2013-03-14 10:13:00,
2013-03-14 05:18:00,23.6,20.8,30.19,East,97,3.0,7.0,89,0.01,,,0.01,VWS V14.01,2013-03-14 10:18:00,
2013-03-14 05:23:00,23.7,20.9,30.19,ESE,122,3.0,7.0,89,0.01,,,0.01,VWS V14.01,2013-03-14 10:23:00,
2013-03-14 05:28:00,23.9,21.1,30.19,ESE,123,0.0,7.0,89,0.01,,,0.01,VWS V14.01,2013-03-14 10:28:00,
2013-03-14 05:33:00,23.9,21.1,30.19,East,95,0.0,5.0,89,0.01,,,0.01,VWS V14.01,2013-03-14 10:33:00,
2013-03-14 05:39:00,23.9,21.4,30.18,ESE,122,3.0,5.0,90,0.01,,,0.01,VWS V14.01,2013-03-14 10:39:00,
2013-03-14 05:44:00,23.9,21.4,30.18,East,98,2.0,6.0,90,0.01,,,0.01,VWS V14.01,2013-03-14 10:44:00,
2013-03-14 05:49:00,23.9,21.4,30.18,East,89,1.0,6.0,90,0.01,,,0.01,VWS V14.01,2013-03-14 10:49:00,
2013-03-14 05:54:00,23.9,21.7,30.17,East,95,3.0,6.0,91,0.02,,,0.02,VWS V14.01,2013-03-14 10:54:00,
2013-03-14 05:59:00,24.0,21.8,30.17,East,91,2.0,6.0,91,0.02,,,0.02,VWS V14.01,2013-03-14 10:59:00,
2013-03-14 06:04:00,24.0,21.8,30.17,SE,144,5.0,7.0,91,0.01,,,0.02,VWS V14.01,2013-03-14 11:04:00,
2013-03-14 06:09:00,23.9,21.7,30.17,East,87,5.0,8.0,91,0.01,,,0.02,VWS V14.01,2013-03-14 11:09:00,
2013-03-14 06:14:00,23.9,21.7,30.16,East,81,2.0,8.0,91,0.01,,,0.02,VWS V14.01,2013-03-14 11:14:00,
2013-03-14 06:19:00,23.9,21.7,30.16,ENE,73,2.0,8.0,91,0.01,,,0.02,VWS V14.01,2013-03-14 11:19:00,
2013-03-14 06:24:00,23.9,21.4,30.15,East,83,6.0,9.0,90,0.01,,,0.02,VWS V14.01,2013-03-14 11:24:00,
2013-03-14 06:29:00,23.9,21.7,30.15,East,82,0.0,9.0,91,0.01,,,0.02,VWS V14.01,2013-03-14 11:29:00,
2013-03-14 06:34:00,23.9,21.7,30.15,ENE,75,3.0,7.0,91,0.01,,,0.02,VWS V14.01,2013-03-14 11:34:00,
2013-03-14 06:39:00,23.9,21.4,30.14,East,99,5.0,9.0,90,0.01,,,0.02,VWS V14.01,2013-03-14 11:39:00,
2013-03-14 06:44:00,23.8,21.3,30.14,ESE,104,3.0,10.0,90,0.01,,,0.02,VWS V14.01,2013-03-14 11:44:00,
2013-03-14 06:49:00,23.8,21.3,30.14,East,81,2.0,10.0,90,0.01,,,0.02,VWS V14.01,2013-03-14 11:49:00,
2013-03-14 06:54:00,23.8,21.3,30.14,East,92,2.0,10.0,90,0.01,,,0.02,VWS V14.01,2013-03-14 11:54:00,
2013-03-14 06:59:00,23.9,21.4,30.14,ESE,117,0.0,10.0,90,0.01,,,0.02,VWS V14.01,2013-03-14 11:59:00,
2013-03-14 07:04:00,24.0,21.5,30.14,East,100,5.0,9.0,90,0.00,,,0.02,VWS V14.01,2013-03-14 12:04:00,
2013-03-14 07:09:00,24.0,21.5,30.14,ESE,110,2.0,9.0,90,0.00,,,0.02,VWS V14.01,2013-03-14 12:09:00,
2013-03-14 07:14:00,24.1,21.6,30.14,ESE,105,4.0,9.0,90,0.00,,,0.02,VWS V14.01,2013-03-14 12:14:00,
2013-03-14 07:19:00,24.1,21.6,30.14,SE,131,6.0,9.0,90,0.00,,,0.02,VWS V14.01,2013-03-14 12:19:00,
2013-03-14 07:24:00,24.2,21.4,30.15,ESE,118,0.0,9.0,89,0.00,,,0.02,VWS V14.01,2013-03-14 12:24:00,
2013-03-14 07:29:00,24.3,21.5,30.15,East,95,1.0,9.0,89,0.00,,,0.02,VWS V14.01,2013-03-14 12:29:00,
2013-03-14 07:34:00,24.3,21.5,30.15,ESE,102,0.0,5.0,89,0.00,,,0.02,VWS V14.01,2013-03-14 12:34:00,
2013-03-14 07:39:00,24.4,21.6,30.15,ESE,112,0.0,5.0,89,0.00,,,0.02,VWS V14.01,2013-03-14 12:39:00,
2013-03-14 07:44:00,24.4,21.6,30.15,ESE,108,0.0,5.0,89,0.00,,,0.02,VWS V14.01,2013-03-14 12:44:00,
2013-03-14 07:49:00,24.4,21.6,30.15,ESE,104,2.0,5.0,89,0.00,,,0.02,VWS V14.01,2013-03-14 12:49:00,
2013-03-14 07:54:00,24.5,21.7,30.16,ESE,108,1.0,5.0,89,0.00,,,0.02,VWS V14.01,2013-03-14 12:54:00,
2013-03-14 07:59:00,24.6,21.8,30.16,ESE,108,0.0,5.0,89,0.00,,,0.02,VWS V14.01,2013-03-14 12:59:00,
2013-03-14 08:05:00,24.7,21.9,30.16,ESE,110,0.0,3.0,89,0.00,,,0.02,VWS V14.01,2013-03-14 13:05:00,
2013-03-14 08:10:00,24.8,22.0,30.16,ESE,108,0.0,3.0,89,0.00,,,0.02,VWS V14.01,2013-03-14 13:10:00,
2013-03-14 08:15:00,24.9,22.1,30.15,ESE,109,1.0,3.0,89,0.00,,,0.02,VWS V14.01,2013-03-14 13:15:00,
2013-03-14 08:20:00,25.1,22.3,30.15,ESE,116,3.0,4.0,89,0.00,,,0.02,VWS V14.01,2013-03-14 13:20:00,
2013-03-14 08:25:00,25.2,22.4,30.14,ESE,108,0.0,6.0,89,0.00,,,0.02,VWS V14.01,2013-03-14 13:25:00,
2013-03-14 08:30:00,25.2,22.1,30.14,East,91,2.0,6.0,88,0.00,,,0.02,VWS V14.01,2013-03-14 13:30:00,
2013-03-14 08:35:00,25.4,22.6,30.15,East,100,0.0,4.0,89,0.00,,,0.02,VWS V14.01,2013-03-14 13:35:00,
2013-03-14 08:40:00,25.9,22.8,30.15,ESE,104,4.0,6.0,88,0.00,,,0.02,VWS V14.01,2013-03-14 13:40:00,
2013-03-14 08:45:00,26.2,22.9,30.15,ESE,109,2.0,6.0,87,0.00,,,0.02,VWS V14.01,2013-03-14 13:45:00,
2013-03-14 08:50:00,26.6,23.3,30.16,East,79,0.0,6.0,87,0.00,,,0.02,VWS V14.01,2013-03-14 13:50:00,
2013-03-14 08:55:00,27.1,23.5,30.15,East,81,0.0,6.0,86,0.00,,,0.02,VWS V14.01,2013-03-14 13:55:00,
2013-03-14 09:00:00,27.5,23.9,30.15,East,95,0.0,6.0,86,0.00,,,0.02,VWS V14.01,2013-03-14 14:00:00,
2013-03-14 09:05:00,27.9,24.0,30.15,ESE,104,0.0,5.0,85,0.00,,,0.02,VWS V14.01,2013-03-14 14:05:00,
2013-03-14 09:10:00,28.2,24.0,30.15,ESE,109,0.0,7.0,84,0.00,,,0.02,VWS V14.01,2013-03-14 14:10:00,
2013-03-14 09:15:00,28.4,24.2,30.16,ESE,119,2.0,7.0,84,0.00,,,0.02,VWS V14.01,2013-03-14 14:15:00,
2013-03-14 09:20:00,28.4,23.9,30.15,East,97,2.0,7.0,83,0.00,,,0.02,VWS V14.01,2013-03-14 14:20:00,
2013-03-14 09:26:00,28.5,24.3,30.16,East,93,0.0,7.0,84,0.00,,,0.02,VWS V14.01,2013-03-14 14:26:00,
2013-03-14 09:31:00,28.7,24.2,30.16,ENE,78,0.0,0.0,83,0.00,,,0.02,VWS V14.01,2013-03-14 14:31:00,
2013-03-14 09:36:00,28.9,24.4,30.16,East,93,2.0,6.0,83,0.00,,,0.02,VWS V14.01,2013-03-14 14:36:00,
2013-03-14 09:41:00,29.0,24.5,30.16,ESE,108,2.0,7.0,83,0.00,,,0.02,VWS V14.01,2013-03-14 14:41:00,
2013-03-14 09:47:00,29.3,24.5,30.16,East,95,6.0,7.0,82,0.00,,,0.02,VWS V14.01,2013-03-14 14:47:00,
2013-03-14 09:51:00,29.4,24.6,30.16,ESE,121,4.0,7.0,82,0.00,,,0.02,VWS V14.01,2013-03-14 14:51:00,
2013-03-14 09:57:00,29.6,24.8,30.16,East,86,3.0,9.0,82,0.00,,,0.02,VWS V14.01,2013-03-14 14:57:00,
2013-03-14 10:02:00,29.7,24.6,30.16,ESE,116,2.0,7.0,81,0.00,,,0.02,VWS V14.01,2013-03-14 15:02:00,
2013-03-14 10:07:00,29.9,24.8,30.16,ESE,106,3.0,9.0,81,0.00,,,0.02,VWS V14.01,2013-03-14 15:07:00,
2013-03-14 10:12:00,30.1,24.7,30.15,ESE,111,5.0,9.0,80,0.00,,,0.02,VWS V14.01,2013-03-14 15:12:00,
2013-03-14 10:17:00,30.4,25.3,30.14,East,94,0.0,9.0,81,0.00,,,0.02,VWS V14.01,2013-03-14 15:17:00,
2013-03-14 10:22:00,30.7,25.3,30.15,East,81,0.0,9.0,80,0.00,,,0.02,VWS V14.01,2013-03-14 15:22:00,
2013-03-14 10:28:00,31.1,25.4,30.15,ESE,102,5.0,9.0,79,0.00,,,0.02,VWS V14.01,2013-03-14 15:28:00,
2013-03-14 10:33:00,31.2,25.1,30.15,ESE,123,3.0,4.0,78,0.00,,,0.02,VWS V14.01,2013-03-14 15:33:00,
2013-03-14 10:38:00,31.5,25.4,30.15,ESE,104,0.0,4.0,78,0.00,,,0.02,VWS V14.01,2013-03-14 15:38:00,
2013-03-14 10:43:00,31.7,25.3,30.15,East,81,0.0,6.0,77,0.00,,,0.02,VWS V14.01,2013-03-14 15:43:00,
2013-03-14 10:48:00,32.0,25.6,30.15,SE,125,0.0,6.0,77,0.00,,,0.02,VWS V14.01,2013-03-14 15:48:00,
2013-03-14 10:53:00,32.4,25.7,30.15,ESE,116,0.0,6.0,76,0.00,,,0.02,VWS V14.01,2013-03-14 15:53:00,
2013-03-14 10:58:00,32.8,26.1,30.15,ESE,104,0.0,6.0,76,0.00,,,0.02,VWS V14.01,2013-03-14 15:58:00,
2013-03-14 11:03:00,33.1,25.7,30.15,ENE,77,5.0,7.0,74,0.00,,,0.02,VWS V14.01,2013-03-14 16:03:00,
2013-03-14 11:08:00,33.2,25.8,30.15,ESE,104,3.0,8.0,74,0.00,,,0.02,VWS V14.01,2013-03-14 16:08:00,
2013-03-14 11:13:00,33.3,25.6,30.15,East,89,5.0,9.0,73,0.00,,,0.02,VWS V14.01,2013-03-14 16:13:00,
2013-03-14 11:18:00,33.4,25.7,30.15,ESE,112,0.0,9.0,73,0.00,,,0.02,VWS V14.01,2013-03-14 16:18:00,
2013-03-14 11:23:00,33.7,26.0,30.15,ESE,112,0.0,9.0,73,0.00,,,0.02,VWS V14.01,2013-03-14 16:23:00,
2013-03-14 11:28:00,34.1,26.0,30.15,SSE,158,0.0,9.0,72,0.00,,,0.02,VWS V14.01,2013-03-14 16:28:00,
2013-03-14 11:33:00,34.4,26.3,30.14,East,100,0.0,5.0,72,0.00,,,0.02,VWS V14.01,2013-03-14 16:33:00,
2013-03-14 11:38:00,34.7,26.6,30.14,East,81,0.0,5.0,72,0.00,,,0.02,VWS V14.01,2013-03-14 16:38:00,
2013-03-14 11:44:00,34.8,26.0,30.14,East,95,0.0,5.0,70,0.00,,,0.02,VWS V14.01,2013-03-14 16:44:00,
2013-03-14 11:49:00,34.8,26.0,30.14,NE,54,0.0,5.0,70,0.00,,,0.02,VWS V14.01,2013-03-14 16:49:00,
2013-03-14 11:54:00,34.9,25.8,30.14,ESE,107,0.0,5.0,69,0.00,,,0.02,VWS V14.01,2013-03-14 16:54:00,
2013-03-14 11:59:00,35.0,26.2,30.14,East,98,0.0,5.0,70,0.00,,,0.02,VWS V14.01,2013-03-14 16:59:00,
2013-03-14 12:04:00,35.2,26.8,30.13,East,100,0.0,1.0,71,0.00,,,0.02,VWS V14.01,2013-03-14 17:04:00,
2013-03-14 12:09:00,35.2,26.4,30.14,North,354,1.0,2.0,70,0.00,,,0.02,VWS V14.01,2013-03-14 17:09:00,
2013-03-14 12:14:00,35.3,25.8,30.15,SE,133,0.0,2.0,68,0.00,,,0.02,VWS V14.01,2013-03-14 17:14:00,
2013-03-14 12:19:00,35.2,26.1,30.15,SE,131,0.0,2.0,69,0.00,,,0.02,VWS V14.01,2013-03-14 17:19:00,
2013-03-14 12:24:00,35.5,26.4,30.14,SSW,199,0.0,2.0,69,0.00,,,0.02,VWS V14.01,2013-03-14 17:24:00,
2013-03-14 12:29:00,35.7,25.8,30.14,ESE,108,0.0,5.0,67,0.00,,,0.02,VWS V14.01,2013-03-14 17:29:00,
2013-03-14 12:34:00,35.6,25.7,30.13,SE,137,0.0,0.0,67,0.00,,,0.02,VWS V14.01,2013-03-14 17:34:00,
2013-03-14 12:39:00,35.9,26.7,30.14,SE,137,0.0,0.0,69,0.00,,,0.02,VWS V14.01,2013-03-14 17:39:00,
2013-03-14 12:44:00,36.1,26.2,30.15,East,91,0.0,3.0,67,0.00,,,0.02,VWS V14.01,2013-03-14 17:44:00,
2013-03-14 12:49:00,36.5,26.6,30.15,East,91,0.0,3.0,67,0.00,,,0.02,VWS V14.01,2013-03-14 17:49:00,
2013-03-14 12:54:00,36.8,27.2,30.16,SW,228,0.0,3.0,68,0.00,,,0.02,VWS V14.01,2013-03-14 17:54:00,
2013-03-14 12:59:00,37.2,26.9,30.16,WSW,256,0.0,5.0,66,0.00,,,0.02,VWS V14.01,2013-03-14 17:59:00,
2013-03-14 13:04:00,37.3,26.3,30.15,ESE,109,0.0,3.0,64,0.00,,,0.02,VWS V14.01,2013-03-14 18:04:00,
2013-03-14 13:09:00,37.1,26.4,30.15,ESE,113,0.0,3.0,65,0.00,,,0.02,VWS V14.01,2013-03-14 18:09:00,
2013-03-14 13:15:00,37.0,26.0,30.14,ESE,102,0.0,3.0,64,0.00,,,0.02,VWS V14.01,2013-03-14 18:15:00,
2013-03-14 13:20:00,36.9,26.2,30.14,ESE,110,1.0,8.0,65,0.00,,,0.02,VWS V14.01,2013-03-14 18:20:00,
2013-03-14 13:25:00,36.9,26.2,30.13,ESE,105,0.0,8.0,65,0.00,,,0.02,VWS V14.01,2013-03-14 18:25:00,
2013-03-14 13:30:00,37.0,26.3,30.12,East,97,0.0,8.0,65,0.00,,,0.02,VWS V14.01,2013-03-14 18:30:00,
2013-03-14 13:35:00,37.4,26.7,30.13,ESE,108,0.0,4.0,65,0.00,,,0.02,VWS V14.01,2013-03-14 18:35:00,
2013-03-14 13:40:00,37.7,27.0,30.14,ESE,104,0.0,4.0,65,0.00,,,0.02,VWS V14.01,2013-03-14 18:40:00,
2013-03-14 13:45:00,37.8,27.1,30.13,ESE,102,0.0,4.0,65,0.00,,,0.02,VWS V14.01,2013-03-14 18:45:00,
2013-03-14 13:50:00,37.7,27.0,30.14,ESE,102,0.0,4.0,65,0.00,,,0.02,VWS V14.01,2013-03-14 18:50:00,
2013-03-14 13:55:00,37.8,27.1,30.13,ESE,102,0.0,4.0,65,0.00,,,0.02,VWS V14.01,2013-03-14 18:55:00,
2013-03-14 14:00:00,37.8,27.1,30.13,East,94,0.0,4.0,65,0.00,,,0.02,VWS V14.01,2013-03-14 19:00:00,
2013-03-14 14:05:00,37.8,27.1,30.12,ESE,107,0.0,5.0,65,0.00,,,0.02,VWS V14.01,2013-03-14 19:05:00,
2013-03-14 14:11:00,38.0,27.3,30.13,ESE,104,0.0,5.0,65,0.00,,,0.02,VWS V14.01,2013-03-14 19:11:00,
2013-03-14 14:16:00,38.2,27.5,30.12,East,92,2.0,5.0,65,0.00,,,0.02,VWS V14.01,2013-03-14 19:16:00,
2013-03-14 14:21:00,38.4,26.9,30.13,ESE,118,0.0,5.0,63,0.00,,,0.02,VWS V14.01,2013-03-14 19:21:00,
2013-03-14 14:27:00,38.7,27.2,30.13,East,90,0.0,5.0,63,0.00,,,0.02,VWS V14.01,2013-03-14 19:27:00,
2013-03-14 14:32:00,39.0,27.9,30.13,East,100,0.0,0.0,64,0.00,,,0.02,VWS V14.01,2013-03-14 19:32:00,
2013-03-14 14:37:00,39.5,28.4,30.13,East,101,0.0,2.0,64,0.00,,,0.02,VWS V14.01,2013-03-14 19:37:00,
2013-03-14 14:42:00,40.0,28.4,30.14,SSW,212,0.0,2.0,63,0.00,,,0.02,VWS V14.01,2013-03-14 19:42:00,
2013-03-14 14:47:00,40.4,28.0,30.13,SSW,212,0.0,3.0,61,0.00,,,0.02,VWS V14.01,2013-03-14 19:47:00,
2013-03-14 14:52:00,40.7,28.7,30.13,SSW,212,0.0,3.0,62,0.00,,,0.02,VWS V14.01,2013-03-14 19:52:00,
2013-03-14 14:57:00,41.0,28.2,30.12,SSW,212,0.0,3.0,60,0.00,,,0.02,VWS V14.01,2013-03-14 19:57:00,
2013-03-14 15:02:00,41.2,28.0,30.12,ESE,114,0.0,2.0,59,0.00,,,0.02,VWS V14.01,2013-03-14 20:02:00,
2013-03-14 15:07:00,40.8,27.6,30.12,ESE,113,0.0,2.0,59,0.00,,,0.02,VWS V14.01,2013-03-14 20:07:00,
2013-03-14 15:12:00,40.7,27.9,30.12,ESE,114,0.0,2.0,60,0.00,,,0.02,VWS V14.01,2013-03-14 20:12:00,
2013-03-14 15:18:00,40.9,27.7,30.12,ESE,113,0.0,2.0,59,0.00,,,0.02,VWS V14.01,2013-03-14 20:18:00,
2013-03-14 15:23:00,40.6,27.4,30.11,ESE,114,0.0,2.0,59,0.00,,,0.02,VWS V14.01,2013-03-14 20:23:00,
2013-03-14 15:28:00,40.4,27.6,30.11,ENE,74,0.0,2.0,60,0.00,,,0.02,VWS V14.01,2013-03-14 20:28:00,
2013-03-14 15:33:00,40.6,28.6,30.11,East,79,0.0,0.0,62,0.00,,,0.02,VWS V14.01,2013-03-14 20:33:00,
2013-03-14 15:38:00,41.1,28.7,30.11,East,80,0.0,1.0,61,0.00,,,0.02,VWS V14.01,2013-03-14 20:38:00,
2013-03-14 15:43:00,41.5,29.5,30.12,East,95,1.0,3.0,62,0.00,,,0.02,VWS V14.01,2013-03-14 20:43:00,
2013-03-14 15:48:00,41.9,28.6,30.13,WSW,238,0.0,5.0,59,0.00,,,0.02,VWS V14.01,2013-03-14 20:48:00,
2013-03-14 15:53:00,42.2,28.9,30.14,WSW,238,0.0,5.0,59,0.00,,,0.02,VWS V14.01,2013-03-14 20:53:00,
2013-03-14 15:58:00,42.5,29.2,30.14,WSW,239,0.0,5.0,59,0.00,,,0.02,VWS V14.01,2013-03-14 20:58:00,
2013-03-14 16:03:00,42.7,28.5,30.14,WSW,238,0.0,0.0,57,0.00,,,0.02,VWS V14.01,2013-03-14 21:03:00,
2013-03-14 16:08:00,42.9,28.7,30.14,WSW,238,0.0,4.0,57,0.00,,,0.02,VWS V14.01,2013-03-14 21:08:00,
2013-03-14 16:13:00,43.0,28.8,30.15,WSW,238,4.0,4.0,57,0.00,,,0.02,VWS V14.01,2013-03-14 21:13:00,
2013-03-14 16:18:00,43.0,28.8,30.14,WSW,238,0.0,5.0,57,0.00,,,0.02,VWS V14.01,2013-03-14 21:18:00,
2013-03-14 16:23:00,43.1,28.5,30.14,WSW,238,0.0,5.0,56,0.00,,,0.02,VWS V14.01,2013-03-14 21:23:00,
2013-03-14 16:28:00,42.9,28.7,30.14,WSW,238,0.0,5.0,57,0.00,,,0.02,VWS V14.01,2013-03-14 21:28:00,
2013-03-14 16:33:00,42.8,28.6,30.14,WSW,238,0.0,0.0,57,0.00,,,0.02,VWS V14.01,2013-03-14 21:33:00,
2013-03-14 16:38:00,42.7,28.5,30.14,WSW,237,0.0,3.0,57,0.00,,,0.02,VWS V14.01,2013-03-14 21:38:00,
2013-03-14 16:43:00,42.6,28.9,30.13,WSW,237,0.0,3.0,58,0.00,,,0.02,VWS V14.01,2013-03-14 21:43:00,
2013-03-14 16:49:00,42.5,28.8,30.13,WSW,237,0.0,3.0,58,0.00,,,0.02,VWS V14.01,2013-03-14 21:49:00,
2013-03-14 16:54:00,42.4,28.7,30.13,WSW,237,0.0,3.0,58,0.00,,,0.02,VWS V14.01,2013-03-14 21:54:00,
2013-03-14 16:59:00,42.2,28.1,30.12,WSW,237,0.0,3.0,57,0.00,,,0.02,VWS V14.01,2013-03-14 21:59:00,
2013-03-14 17:04:00,41.9,27.8,30.12,WSW,237,0.0,0.0,57,0.00,,,0.02,VWS V14.01,2013-03-14 22:04:00,
2013-03-14 17:09:00,41.6,27.9,30.12,WSW,237,0.0,0.0,58,0.00,,,0.02,VWS V14.01,2013-03-14 22:09:00,
2013-03-14 17:14:00,41.5,28.3,30.12,WSW,237,0.0,0.0,59,0.00,,,0.02,VWS V14.01,2013-03-14 22:14:00,
2013-03-14 17:19:00,41.3,27.6,30.11,WSW,237,0.0,0.0,58,0.00,,,0.02,VWS V14.01,2013-03-14 22:19:00,
2013-03-14 17:24:00,40.8,28.0,30.11,WSW,237,0.0,0.0,60,0.00,,,0.02,VWS V14.01,2013-03-14 22:24:00,
2013-03-14 17:29:00,40.4,27.6,30.11,WSW,237,0.0,0.0,60,0.00,,,0.02,VWS V14.01,2013-03-14 22:29:00,
2013-03-14 17:34:00,40.0,27.2,30.11,WSW,237,0.0,0.0,60,0.00,,,0.02,VWS V14.01,2013-03-14 22:34:00,
2013-03-14 17:39:00,39.7,27.8,30.11,WSW,237,0.0,0.0,62,0.00,,,0.02,VWS V14.01,2013-03-14 22:39:00,
2013-03-14 17:44:00,39.5,27.6,30.11,WSW,237,0.0,0.0,62,0.00,,,0.02,VWS V14.01,2013-03-14 22:44:00,
2013-03-14 17:49:00,39.4,27.9,30.11,WSW,237,0.0,0.0,63,0.00,,,0.02,VWS V14.01,2013-03-14 22:49:00,
2013-03-14 17:54:00,39.5,27.6,30.11,WSW,237,0.0,0.0,62,0.00,,,0.02,VWS V14.01,2013-03-14 22:54:00,
2013-03-14 17:59:00,39.3,27.4,30.10,WSW,237,0.0,0.0,62,0.00,,,0.02,VWS V14.01,2013-03-14 22:59:00,
2013-03-14 18:04:00,39.0,27.5,30.11,WSW,237,0.0,0.0,63,0.00,,,0.02,VWS V14.01,2013-03-14 23:04:00,
2013-03-14 18:09:00,38.8,27.3,30.11,WSW,237,0.0,0.0,63,0.00,,,0.02,VWS V14.01,2013-03-14 23:09:00,
2013-03-14 18:14:00,38.4,26.9,30.11,WSW,237,0.0,0.0,63,0.00,,,0.02,VWS V14.01,2013-03-14 23:14:00,
2013-03-14 18:19:00,38.1,27.0,30.11,WSW,237,0.0,0.0,64,0.00,,,0.02,VWS V14.01,2013-03-14 23:19:00,
2013-03-14 18:24:00,37.9,26.8,30.11,WSW,237,0.0,0.0,64,0.00,,,0.02,VWS V14.01,2013-03-14 23:24:00,
2013-03-14 18:29:00,37.7,27.0,30.11,WSW,237,0.0,0.0,65,0.00,,,0.02,VWS V14.01,2013-03-14 23:29:00,
2013-03-14 18:34:00,37.6,26.9,30.11,WSW,237,0.0,0.0,65,0.00,,,0.02,VWS V14.01,2013-03-14 23:34:00,
2013-03-14 18:39:00,37.7,27.0,30.11,WSW,237,0.0,1.0,65,0.00,,,0.02,VWS V14.01,2013-03-14 23:39:00,
2013-03-14 18:44:00,37.8,27.1,30.11,WSW,237,0.0,1.0,65,0.00,,,0.02,VWS V14.01,2013-03-14 23:44:00,
2013-03-14 18:49:00,38.0,27.3,30.11,WSW,237,0.0,1.0,65,0.00,,,0.02,VWS V14.01,2013-03-14 23:49:00,
2013-03-14 18:54:00,38.0,26.9,30.11,WSW,237,0.0,3.0,64,0.00,,,0.02,VWS V14.01,2013-03-14 23:54:00,
2013-03-14 18:59:00,37.9,27.2,30.12,WSW,237,0.0,3.0,65,0.00,,,0.02,VWS V14.01,2013-03-14 23:59:00,
2013-03-14 19:04:00,37.8,27.1,30.11,WSW,237,0.0,0.0,65,0.00,,,0.02,VWS V14.01,2013-03-15 00:04:00,
2013-03-14 19:09:00,37.6,26.9,30.11,WSW,237,0.0,0.0,65,0.00,,,0.02,VWS V14.01,2013-03-15 00:09:00,
2013-03-14 19:15:00,37.6,26.9,30.11,WSW,237,0.0,0.0,65,0.00,,,0.02,VWS V14.01,2013-03-15 00:15:00,
2013-03-14 19:20:00,37.5,26.8,30.11,WSW,237,0.0,0.0,65,0.00,,,0.02,VWS V14.01,2013-03-15 00:20:00,
2013-03-14 19:25:00,37.5,26.8,30.11,WSW,237,0.0,0.0,65,0.00,,,0.02,VWS V14.01,2013-03-15 00:25:00,
2013-03-14 19:30:00,37.4,26.7,30.10,WSW,237,0.0,0.0,65,0.00,,,0.02,VWS V14.01,2013-03-15 00:30:00,
2013-03-14 19:35:00,37.4,26.7,30.11,WSW,237,0.0,0.0,65,0.00,,,0.02,VWS V14.01,2013-03-15 00:35:00,
2013-03-14 19:40:00,37.1,26.8,30.11,WSW,237,0.0,0.0,66,0.00,,,0.02,VWS V14.01,2013-03-15 00:40:00,
2013-03-14 19:45:00,36.8,26.9,30.11,WSW,237,0.0,0.0,67,0.00,,,0.02,VWS V14.01,2013-03-15 00:45:00,
2013-03-14 19:50:00,36.5,26.6,30.11,WSW,237,0.0,0.0,67,0.00,,,0.02,VWS V14.01,2013-03-15 00:50:00,
2013-03-14 19:55:00,36.2,26.7,30.11,WSW,237,0.0,0.0,68,0.00,,,0.02,VWS V14.01,2013-03-15 00:55:00,
2013-03-14 20:00:00,36.0,26.5,30.11,WSW,237,0.0,0.0,68,0.00,,,0.02,VWS V14.01,2013-03-15 01:00:00,
2013-03-14 20:05:00,35.7,26.5,30.10,WSW,237,0.0,3.0,69,0.00,,,0.02,VWS V14.01,2013-03-15 01:05:00,
2013-03-14 20:10:00,35.5,26.4,30.10,WSW,237,0.0,3.0,69,0.00,,,0.02,VWS V14.01,2013-03-15 01:10:00,
2013-03-14 20:15:00,35.3,26.5,30.10,WSW,237,0.0,3.0,70,0.00,,,0.02,VWS V14.01,2013-03-15 01:15:00,
2013-03-14 20:20:00,35.0,26.2,30.09,WSW,237,0.0,3.0,70,0.00,,,0.02,VWS V14.01,2013-03-15 01:20:00,
2013-03-14 20:25:00,34.8,26.0,30.09,WSW,237,0.0,3.0,70,0.00,,,0.02,VWS V14.01,2013-03-15 01:25:00,
2013-03-14 20:31:00,34.7,25.9,30.09,WSW,237,0.0,3.0,70,0.00,,,0.02,VWS V14.01,2013-03-15 01:31:00,
2013-03-14 20:36:00,34.5,26.1,30.09,WSW,237,0.0,0.0,71,0.00,,,0.02,VWS V14.01,2013-03-15 01:36:00,
2013-03-14 20:41:00,34.4,26.0,30.08,WSW,237,0.0,0.0,71,0.00,,,0.02,VWS V14.01,2013-03-15 01:41:00,
2013-03-14 20:46:00,34.4,26.0,30.08,WSW,237,0.0,0.0,71,0.00,,,0.02,VWS V14.01,2013-03-15 01:46:00,
2013-03-14 20:51:00,34.4,26.0,30.08,WSW,237,0.0,0.0,71,0.00,,,0.02,VWS V14.01,2013-03-15 01:51:00,
2013-03-14 20:56:00,34.3,25.9,30.08,WSW,237,0.0,0.0,71,0.00,,,0.02,VWS V14.01,2013-03-15 01:56:00,
2013-03-14 21:01:00,34.3,25.9,30.08,WSW,237,0.0,0.0,71,0.00,,,0.02,VWS V14.01,2013-03-15 02:01:00,
2013-03-14 21:06:00,34.3,25.9,30.08,WSW,237,0.0,0.0,71,0.00,,,0.02,VWS V14.01,2013-03-15 02:06:00,
2013-03-14 21:11:00,34.2,25.8,30.07,WSW,237,0.0,0.0,71,0.00,,,0.02,VWS V14.01,2013-03-15 02:11:00,
2013-03-14 21:16:00,34.2,25.8,30.07,WSW,237,0.0,0.0,71,0.00,,,0.02,VWS V14.01,2013-03-15 02:16:00,
2013-03-14 21:22:00,34.1,25.7,30.06,WSW,237,0.0,0.0,71,0.00,,,0.02,VWS V14.01,2013-03-15 02:22:00,
2013-03-14 21:27:00,34.2,25.8,30.06,WSW,237,0.0,0.0,71,0.00,,,0.02,VWS V14.01,2013-03-15 02:27:00,
2013-03-14 21:32:00,34.2,25.8,30.06,WSW,237,0.0,0.0,71,0.00,,,0.02,VWS V14.01,2013-03-15 02:32:00,
2013-03-14 21:37:00,34.2,25.8,30.05,WSW,237,0.0,0.0,71,0.00,,,0.02,VWS V14.01,2013-03-15 02:37:00,
2013-03-14 21:42:00,34.2,25.8,30.05,WSW,237,0.0,0.0,71,0.00,,,0.02,VWS V14.01,2013-03-15 02:42:00,
2013-03-14 21:47:00,34.2,25.8,30.05,WSW,237,0.0,0.0,71,0.00,,,0.02,VWS V14.01,2013-03-15 02:47:00,
2013-03-14 21:52:00,34.1,25.7,30.05,WSW,237,0.0,0.0,71,0.00,,,0.02,VWS V14.01,2013-03-15 02:52:00,
2013-03-14 21:57:00,33.9,25.5,30.06,WSW,237,0.0,0.0,71,0.00,,,0.02,VWS V14.01,2013-03-15 02:57:00,
2013-03-14 22:02:00,33.7,25.3,30.05,WSW,237,0.0,0.0,71,0.00,,,0.02,VWS V14.01,2013-03-15 03:02:00,
2013-03-14 22:07:00,33.5,25.5,30.05,WSW,237,0.0,2.0,72,0.00,,,0.02,VWS V14.01,2013-03-15 03:07:00,
2013-03-14 22:12:00,33.3,25.3,30.05,WSW,237,0.0,2.0,72,0.00,,,0.02,VWS V14.01,2013-03-15 03:12:00,
2013-03-14 22:17:00,33.3,25.3,30.05,WSW,237,0.0,2.0,72,0.00,,,0.02,VWS V14.01,2013-03-15 03:17:00,
2013-03-14 22:23:00,33.2,25.5,30.05,WSW,237,0.0,2.0,73,0.00,,,0.02,VWS V14.01,2013-03-15 03:23:00,
2013-03-14 22:28:00,33.0,25.3,30.05,WSW,237,0.0,2.0,73,0.00,,,0.02,VWS V14.01,2013-03-15 03:28:00,
2013-03-14 22:33:00,32.9,25.2,30.05,WSW,237,0.0,0.0,73,0.00,,,0.02,VWS V14.01,2013-03-15 03:33:00,
2013-03-14 22:38:00,32.8,25.4,30.05,WSW,237,0.0,0.0,74,0.00,,,0.02,VWS V14.01,2013-03-15 03:38:00,
2013-03-14 22:43:00,32.6,25.2,30.05,WSW,237,0.0,2.0,74,0.00,,,0.02,VWS V14.01,2013-03-15 03:43:00,
2013-03-14 22:48:00,32.5,25.1,30.05,WSW,237,0.0,3.0,74,0.00,,,0.02,VWS V14.01,2013-03-15 03:48:00,
2013-03-14 22:53:00,32.3,25.3,30.06,WSW,237,2.0,4.0,75,0.00,,,0.02,VWS V14.01,2013-03-15 03:53:00,
2013-03-14 22:58:00,32.2,25.5,30.06,WSW,237,0.0,4.0,76,0.00,,,0.02,VWS V14.01,2013-03-15 03:58:00,
2013-03-14 23:00:00,32.1,25.4,30.06,WSW,237,0.0,4.0,76,0.00,,,0.02,VWS V14.01,2013-03-15 04:00:00,
2013-03-14 23:06:00,32.1,25.4,30.06,WSW,237,0.0,4.0,76,0.00,,,0.02,VWS V14.01,2013-03-15 04:06:00,
2013-03-14 23:11:00,32.0,25.3,30.06,WSW,238,0.0,5.0,76,0.00,,,0.02,VWS V14.01,2013-03-15 04:11:00,
2013-03-14 23:16:00,32.1,25.4,30.06,WSW,237,0.0,5.0,76,0.00,,,0.02,VWS V14.01,2013-03-15 04:16:00,
2013-03-14 23:21:00,32.1,25.4,30.06,WSW,238,0.0,5.0,76,0.00,,,0.02,VWS V14.01,2013-03-15 04:21:00,
2013-03-14 23:26:00,32.1,25.4,30.06,WSW,238,0.0,5.0,76,0.00,,,0.02,VWS V14.01,2013-03-15 04:26:00,
2013-03-14 23:31:00,32.1,25.4,30.05,WSW,238,0.0,0.0,76,0.00,,,0.02,VWS V14.01,2013-03-15 04:31:00,
2013-03-14 23:36:00,32.2,25.5,30.05,WSW,238,0.0,0.0,76,0.00,,,0.02,VWS V14.01,2013-03-15 04:36:00,
2013-03-14 23:41:00,32.3,25.6,30.05,WSW,238,0.0,0.0,76,0.00,,,0.02,VWS V14.01,2013-03-15 04:41:00,
2013-03-14 23:47:00,32.1,25.4,30.05,WSW,237,0.0,0.0,76,0.00,,,0.02,VWS V14.01,2013-03-15 04:47:00,
2013-03-14 23:52:00,32.2,25.5,30.04,WSW,238,0.0,0.0,76,0.00,,,0.02,VWS V14.01,2013-03-15 04:52:00,
2013-03-14 23:57:00,32.3,25.6,30.04,WSW,238,0.0,0.0,76,0.00,,,0.02,VWS V14.01,2013-03-15 04:57:00,